User: anonymous   Login
Location: Newark
(7.0858°N, 171.3717°E)
Time: 12:34:02
(UTC+00:00)
Language:

Courier 1B - Orbit

View from above orbital plane
View from above orbital plane
View from above satellite
View from above satellite

Ground track
Ground track

The orbit data is extracted from the following two-line orbital elements,

1 00058U 60013A   21131.61123575  .00000114  00000-0  40421-4 0  9992
2 00058  28.3274 229.7977 0165034 266.1450  92.0213 13.46326913982876
Epoch (UTC): 11 May 2021 14:40:10
Eccentricity: 0.0165034
inclination: 28.3274°
perigee height: 962 km
apogee height: 1209 km
right ascension of ascending node: 229.7977°
argument of perigee: 266.1450°
revolutions per day: 13.46326913
mean anomaly at epoch: 92.0213°
orbit number at epoch: 98287

The dashed part of the orbit path shows where the satellite is in the earth's shadow,  

DLR